User: anonymous   Login
Location: 相模原市立博物館
(35.5593°N, 139.3931°E)
Time: 04:53:29
(UTC+09:00)
Language:

XW-2D - Orbit

View from above orbital plane
View from above orbital plane
View from above satellite
View from above satellite

Ground track
Ground track

The orbit data is extracted from the following two-line orbital elements,

1 40907U 15049J   22019.52510058  .00004108  00000-0  20537-3 0  9992
2 40907  97.4903  24.2190 0014416 146.5112 332.4700 15.17916052350361
Epoch (UTC): 19 January 2022 12:36:08
Eccentricity: 0.0014416
inclination: 97.4903°
perigee height: 502 km
apogee height: 522 km
right ascension of ascending node: 24.2190°
argument of perigee: 146.5112°
revolutions per day: 15.17916052
mean anomaly at epoch: 332.4700°
orbit number at epoch: 35036

The dashed part of the orbit path shows where the satellite is in the earth's shadow,  

DLR